This is the latest recevied weather packets stored in our database for station/object WC4PEM-12. If no packets are shown the sender has not sent any weather packets the latest 10 day(s).
| Time | Temp. | Humidity | Pressure | Rain* | Wind** | Luminosity | Snow |
|---|---|---|---|---|---|---|---|
| 1777910212 | 27.22° C | 60% | 1016.8 hPa | 0 mm | - | - | - |
| 1777909978 | 27.22° C | 60% | 1016.8 hPa | 0 mm | - | - | - |
| 1777909885 | 26.67° C | 59% | 1016.8 hPa | 0 mm | - | - | - |
| 1777909678 | 27.22° C | 60% | 1017 hPa | 0 mm | - | - | - |
| 1777909378 | 27.22° C | 61% | 1017 hPa | 0 mm | - | - | - |
| 1777909295 | 27.22° C | 60% | 1017 hPa | 0 mm | - | - | - |
| 1777909079 | 27.22° C | 60% | 1017 hPa | 0 mm | - | - | - |
| 1777908778 | 27.22° C | 59% | 1016.7 hPa | 0 mm | - | - | - |
| 1777908478 | 26.67° C | 59% | 1016.8 hPa | 0 mm | - | - | - |
| 1777908359 | 26.67° C | 60% | 1016.8 hPa | 0 mm | - | - | - |
| 1777908178 | 26.67° C | 60% | 1016.8 hPa | 0 mm | - | - | - |
| 1777907878 | 26.11° C | 62% | 1016.8 hPa | 0 mm | - | - | - |
| 1777907578 | 26.11° C | 62% | 1017 hPa | 0 mm | - | - | - |
| 1777907278 | 25.56° C | 62% | 1017.1 hPa | 0 mm | - | - | - |
| 1777906978 | 25.56° C | 62% | 1017.1 hPa | 0 mm | - | - | - |
| 1777906679 | 26.11° C | 61% | 1017 hPa | 0 mm | - | - | - |
| 1777906378 | 26.11° C | 62% | 1016.9 hPa | 0 mm | - | - | - |
| 1777906078 | 26.11° C | 62% | 1016.9 hPa | 0 mm | - | - | - |
| 1777905807 | 25.56° C | 63% | 1016.8 hPa | 0 mm | - | - | - |
| 1777905779 | 25.56° C | 63% | 1016.8 hPa | 0 mm | - | - | - |
| 1777905479 | 25.56° C | 63% | 1016.8 hPa | 0 mm | - | - | - |
| 1777905179 | 25.56° C | 63% | 1016.8 hPa | 0 mm | - | - | - |
| 1777904879 | 25° C | 63% | 1016.9 hPa | 0 mm | - | - | - |
| 1777904579 | 25° C | 63% | 1016.8 hPa | 0 mm | - | - | - |
| 1777904495 | 24.44° C | 66% | 1017 hPa | 0 mm | - | - | - |
* Rain latest hour (hover to see other rain measurements)
** Current wind speed in m/s (hover to see current wind gust speed)